RH
57 58 66 62 63 66 62 69 67 66 67 66 73 71 63 58 57 63 62 64 57 45 60 73 71 70 63 59 56 49 52 57 59 60 61 64 65 62 60 58 55 53 50 45 46 48 51 53 54 55 56 57 57 56 54 52 50 45 43 43 45 50 46 38 38 39 42 45 43 43 44 42 39 41 44 46 48 51 55 54 53 57 59 58 58 60
56 55 61 57 62 65 63 74 74 69 69 67 65 61 62 59 55 59 58 63 58 44 63 80 68 58 52 51 54 54 54 54 55 61 63 62 64 64 62 61 58 55 52 47 45 48 53 55 56 56 57 58 58 57 54 53 50 45 43 43 45 49 41 36 39 39 42 44 43 44 44 42 41 42 45 49 51 52 55 55 55 58 59 59 59 59
51 51 51 54 65 63 64 77 74 70 70 65 66 61 56 55 60 67 63 65 64 51 63 77 65 52 50 52 55 56 55 52 54 60 65 62 59 62 63 62 59 57 58 54 47 48 54 57 57 56 58 60 58 57 54 53 50 45 43 43 44 47 40 34 37 38 42 44 43 45 46 43 42 44 45 49 49 47 48 47 50 57 60 60 60 59
46 45 48 61 67 55 56 68 69 71 66 60 65 58 55 57 54 58 63 68 69 58 60 67 64 60 61 64 64 59 54 56 62 64 66 66 59 60 65 64 58 55 59 59 52 51 56 58 58 57 60 60 56 55 54 52 50 45 43 42 44 47 40 34 35 37 40 43 43 46 48 44 43 45 47 51 51 48 47 43 45 54 58 60 60 60
48 41 52 70 72 63 55 59 66 66 63 71 73 53 52 59 49 54 66 68 69 63 59 61 64 72 76 72 69 64 55 56 65 66 64 68 70 67 66 64 60 57 61 61 56 57 59 59 59 59 60 59 55 54 53 53 50 45 42 42 43 46 41 33 34 36 37 39 42 47 51 47 46 48 50 57 57 54 54 50 49 53 57 58 59 60
47 44 56 61 69 74 59 56 61 59 64 78 77 53 44 53 55 62 68 66 70 63 53 57 59 68 76 70 68 66 58 56 63 67 67 70 76 73 68 66 62 60 63 62 59 61 61 61 61 59 60 58 54 53 53 53 52 45 42 42 42 44 39 32 33 35 36 39 41 48 53 50 50 52 53 58 60 57 57 55 53 54 56 57 58 60
47 53 64 61 66 69 56 58 57 63 79 69 60 60 57 59 57 58 62 56 59 54 50 64 62 58 63 59 66 70 62 63 66 69 73 72 74 74 72 70 62 59 62 62 63 64 62 62 61 59 60 57 53 54 52 51 51 45 41 41 41 43 38 31 34 36 38 40 41 48 53 50 51 55 55 57 58 57 58 57 53 54 55 56 58 60
47 55 64 61 62 58 51 55 51 62 75 53 52 70 64 58 52 57 63 50 53 56 60 79 68 59 67 59 66 70 57 66 72 71 75 69 69 75 76 74 67 63 64 67 71 69 64 64 61 59 60 56 53 53 51 50 49 42 40 41 39 42 37 29 33 38 40 42 42 47 53 50 50 55 56 54 55 57 58 56 53 54 55 55 57 59
47 51 55 53 53 54 46 47 51 59 60 51 62 70 59 59 62 68 69 59 68 62 59 81 66 55 71 64 68 69 54 65 71 69 72 62 63 74 78 78 73 68 66 69 75 71 66 64 60 58 58 56 54 53 51 51 47 39 39 41 37 41 39 28 30 37 39 43 43 46 52 52 50 54 56 53 52 55 57 56 53 53 54 55 57 59
45 48 53 54 50 50 47 55 64 57 52 59 69 70 68 72 73 73 68 68 80 68 60 76 60 53 71 65 65 60 49 63 69 69 72 63 66 78 81 79 75 73 69 71 74 68 65 63 57 58 59 56 54 53 53 50 47 39 38 40 37 41 42 28 27 36 38 41 44 46 50 51 51 55 57 55 53 55 57 56 54 54 54 55 58 58
54 61 59 54 45 46 51 60 69 62 57 62 72 77 72 69 76 83 82 78 78 73 75 78 58 55 69 68 66 57 53 63 63 66 72 66 71 80 81 80 77 75 72 76 77 68 66 63 57 58 58 56 54 53 53 50 48 43 37 39 37 41 45 30 24 33 37 39 43 47 50 48 50 57 59 58 56 57 58 56 55 55 54 55 58 58
54 55 50 54 53 53 51 49 58 71 69 59 68 72 55 56 70 77 87 87 69 59 72 79 62 56 65 66 61 58 67 74 63 60 64 63 69 77 79 80 79 78 75 80 81 72 70 64 59 61 58 56 55 52 53 50 50 46 38 39 38 40 45 32 22 29 34 38 42 46 51 48 48 55 60 58 57 59 59 58 57 56 55 55 57 58
47 46 49 54 51 48 52 52 57 70 66 55 67 72 62 68 65 59 81 88 66 54 61 66 56 54 62 59 53 54 63 72 70 65 63 63 67 74 79 78 79 81 78 80 82 76 74 67 60 61 58 56 54 52 53 51 51 48 39 39 38 39 44 34 24 26 32 37 41 45 51 49 47 53 57 56 56 59 60 58 58 57 56 57 59 59
51 55 55 47 40 45 55 54 49 56 57 53 67 74 74 79 68 63 81 75 59 59 59 58 58 60 61 55 58 61 56 63 72 70 70 71 70 71 75 78 80 80 76 78 81 78 76 69 60 59 58 56 53 52 53 52 53 47 40 39 38 38 41 35 25 23 28 34 37 43 48 48 48 53 53 52 54 58 57 57 57 56 56 57 60 59
49 44 42 37 35 45 52 47 44 51 54 56 69 73 68 69 62 63 75 66 61 69 65 56 52 53 54 51 56 63 64 71 77 77 82 83 81 81 80 80 79 75 74 79 80 77 72 64 59 58 58 55 53 53 53 54 54 46 39 39 38 37 39 38 29 20 23 30 31 38 45 44 47 52 50 47 50 54 54 54 54 54 55 56 58 58
50 36 46 54 44 41 44 50 60 58 51 59 74 69 61 67 67 66 74 72 69 80 85 75 57 50 53 51 60 74 75 74 73 78 84 80 79 85 84 80 77 70 74 81 80 77 70 61 58 57 57 55 53 54 55 55 53 45 39 39 38 37 38 40 34 21 21 26 26 34 43 44 45 49 48 46 48 50 50 51 51 52 53 54 55 56
47 40 58 66 48 44 46 49 60 55 44 59 73 62 55 67 74 69 70 75 76 76 78 74 64 60 56 53 69 82 72 64 68 71 75 76 76 83 82 78 77 70 71 80 80 77 71 62 58 57 56 55 53 55 56 55 52 43 38 39 39 37 36 40 37 25 21 23 23 31 41 44 45 46 45 46 49 49 48 47 47 49 50 51 54 55
45 48 63 60 40 48 60 53 57 61 52 53 61 59 58 66 76 73 68 78 90 86 73 68 72 69 59 57 66 68 60 59 64 62 65 75 78 80 78 75 76 69 66 76 79 77 73 62 58 58 55 54 54 56 57 55 51 43 37 39 39 37 36 40 40 29 22 22 24 30 39 44 45 42 38 41 46 47 46 44 44 47 48 49 52 53
47 48 60 60 44 52 64 50 49 61 59 54 53 54 58 60 66 70 66 68 76 80 77 74 79 73 66 70 59 46 50 54 57 61 65 70 71 72 73 72 72 66 65 73 76 79 76 64 58 57 54 55 55 57 57 54 52 44 38 39 39 38 37 38 40 32 23 22 23 28 37 42 41 36 32 36 41 43 44 44 44 46 46 48 51 52
50 42 47 58 55 52 52 45 47 54 54 60 60 58 63 63 63 63 65 70 70 77 81 77 75 67 67 82 63 37 45 53 55 61 62 64 66 68 73 71 67 65 66 70 73 81 79 65 59 57 54 56 58 59 57 54 53 45 38 39 39 38 37 37 41 37 27 22 22 26 34 38 37 33 29 32 37 40 41 42 44 45 46 49 51 52
56 43 45 62 62 51 47 49 57 60 58 60 57 57 62 61 65 63 63 75 77 81 90 86 77 60 51 64 56 37 44 53 57 60 60 64 65 68 75 71 64 66 68 68 73 82 79 65 59 56 56 59 59 59 57 55 56 46 37 39 40 38 38 39 44 41 30 23 21 26 34 35 33 30 26 28 35 39 40 40 43 45 48 51 52 54
54 47 52 62 54 48 57 60 60 64 70 69 57 56 62 64 68 63 63 80 79 77 88 86 77 61 46 52 51 42 49 57 61 64 64 62 60 66 75 69 64 67 68 71 76 81 79 68 60 57 59 61 61 60 58 57 58 47 37 40 39 38 40 43 47 42 31 24 21 26 33 32 28 26 25 28 36 40 41 42 45 47 51 54 54 56
57 55 56 57 47 44 56 59 58 63 68 65 56 59 70 76 73 63 68 82 77 74 83 85 82 66 51 60 60 53 62 67 64 64 63 57 55 66 73 66 65 68 69 74 78 78 76 68 63 62 61 62 62 60 58 59 58 47 39 40 39 39 41 45 47 39 29 24 22 26 30 27 25 25 26 32 39 42 44 46 48 50 54 57 57 59
56 51 49 54 53 53 59 62 65 67 59 51 53 64 70 75 79 78 83 83 74 78 81 85 91 67 49 69 74 64 73 72 60 57 58 56 57 68 72 64 63 68 72 77 79 78 75 70 68 66 63 63 63 60 59 60 58 49 41 40 39 40 43 47 46 36 29 26 23 27 29 25 25 27 29 36 41 43 46 48 50 52 56 59 60 61
45 44 46 48 45 47 58 63 61 59 55 53 61 72 72 74 80 79 79 74 70 77 77 84 92 62 41 65 70 57 62 58 48 49 53 59 65 69 69 63 64 71 74 78 82 84 83 81 77 68 64 65 63 60 59 58 57 51 44 41 39 40 44 47 44 37 31 27 25 29 30 26 27 30 33 39 42 44 46 47 49 52 56 61 63 64
49 48 45 41 38 36 39 42 42 44 52 59 65 69 69 72 71 65 69 73 71 78 80 81 79 48 29 46 47 40 46 44 41 45 50 63 74 73 69 64 67 73 75 79 84 88 89 88 81 69 65 65 62 61 60 58 57 52 46 42 40 42 46 46 43 38 32 26 28 34 33 28 30 34 37 41 43 43 44 44 48 53 57 62 65 66
63 61 54 50 51 43 34 32 34 38 42 46 54 62 67 72 72 69 77 80 78 86 84 71 65 51 40 41 37 34 38 37 39 42 46 61 76 77 72 68 71 74 76 80 85 88 91 90 82 71 66 64 63 62 60 58 57 53 48 44 40 43 47 45 43 40 31 27 31 36 33 30 34 37 39 42 42 42 43 44 48 55 60 64 68 70
58 55 59 62 59 48 42 41 40 43 45 43 49 59 68 77 78 70 71 73 73 76 68 58 63 63 50 39 35 35 35 36 41 42 45 58 71 74 72 72 76 76 77 83 86 89 92 91 86 75 66 64 64 62 61 59 57 55 50 44 42 45 46 43 44 40 31 29 34 35 32 32 37 40 41 43 42 42 44 47 53 60 63 66 71 74
47 46 61 67 63 57 55 53 48 50 56 55 56 57 60 74 80 68 61 66 68 61 51 50 59 57 46 39 37 37 38 40 42 44 52 64 73 75 73 74 76 77 80 85 87 90 92 91 87 77 67 65 64 62 62 60 58 57 51 45 45 46 44 44 45 40 32 32 34 34 32 34 38 42 45 47 47 47 49 53 57 59 58 62 71 78
49 58 74 70 62 55 50 54 59 62 68 64 59 59 58 65 75 70 62 62 63 59 52 50 55 54 46 43 40 37 39 44 49 56 65 73 78 79 77 77 79 79 82 84 86 89 91 90 86 75 67 66 65 62 62 62 61 59 50 45 45 45 44 46 45 38 35 35 33 31 33 35 38 43 48 52 53 54 54 56 59 60 59 64 73 81
40 60 85 73 56 52 51 58 62 64 69 62 50 56 64 65 69 72 70 67 66 68 63 58 66 66 50 43 47 47 51 58 61 64 69 74 81 83 80 79 81 81 82 84 86 89 92 90 84 74 67 68 66 63 64 67 66 59 49 44 44 44 45 48 44 38 37 36 31 31 35 36 39 44 50 56 58 57 59 61 65 69 73 76 79 84
40 60 84 68 49 54 59 61 58 54 59 61 55 61 71 73 74 76 76 75 69 67 64 64 68 60 42 43 53 53 57 64 63 63 69 77 84 85 80 78 80 82 84 85 87 91 93 92 85 75 70 68 65 65 69 72 69 59 48 43 42 44 46 48 43 36 36 34 30 33 38 38 42 47 51 57 60 60 64 70 74 79 84 86 88 91
58 56 66 57 50 62 65 60 58 47 38 42 55 68 71 70 73 73 71 74 69 58 55 56 50 38 33 42 49 46 48 54 56 60 69 76 82 83 81 79 79 82 84 84 88 92 92 89 82 74 71 69 66 67 70 72 67 57 47 42 41 43 46 46 41 36 34 32 31 36 41 42 46 50 53 58 62 64 71 78 82 86 89 91 94 95
76 58 58 57 55 68 73 62 51 36 22 29 53 69 60 46 53 57 53 59 64 56 52 50 42 37 41 45 45 46 45 46 52 64 71 75 80 80 79 80 81 84 86 86 88 91 91 86 78 73 72 70 67 68 69 67 63 55 47 42 39 41 45 45 40 36 32 29 33 40 44 46 50 54 58 62 65 69 76 83 86 89 93 95 96 97
81 63 62 65 62 70 76 59 38 29 30 36 49 62 55 41 48 56 50 51 59 59 57 55 49 46 45 44 46 48 48 54 66 77 79 80 82 80 77 80 83 84 85 87 90 92 88 81 75 72 71 68 67 69 69 66 61 54 48 42 37 40 45 44 40 37 31 29 35 41 46 52 56 59 62 66 70 74 78 84 88 91 96 98 98 99
80 69 64 69 67 62 60 49 33 32 40 37 38 53 60 53 51 54 50 47 51 56 60 57 51 47 45 45 49 51 59 74 82 82 80 79 81 81 76 75 82 86 85 85 86 86 82 76 73 72 70 69 70 70 69 67 62 55 49 41 37 41 44 42 40 37 31 30 36 42 47 55 59 62 66 69 74 78 81 86 90 93 98 99 99 100
75 71 59 57 59 53 54 61 54 41 38 37 38 48 53 47 45 51 50 42 40 49 56 51 45 45 47 48 53 62 75 81 72 70 80 83 81 82 76 72 78 80 76 72 70 70 72 72 72 74 72 72 73 70 69 67 61 56 50 40 36 41 42 40 41 38 30 31 38 43 48 54 60 63 66 71 77 80 83 87 89 93 98 98 96 97
68 65 49 40 55 63 56 60 62 46 37 42 49 54 58 56 56 61 57 45 38 42 48 48 44 45 48 51 57 69 78 70 52 55 77 86 82 83 81 76 73 66 62 66 68 70 74 74 73 75 74 73 73 70 68 66 62 58 50 39 37 42 41 40 43 37 30 32 39 44 48 52 58 62 64 68 74 79 82 83 86 92 96 95 92 93
65 77 70 50 60 71 53 49 59 47 35 42 45 51 68 75 69 64 54 46 51 57 57 53 50 50 53 57 61 66 69 64 49 47 69 85 83 82 84 79 75 68 63 65 69 70 74 75 74 75 73 71 72 70 67 66 63 60 51 39 37 41 41 41 42 35 31 34 39 43 47 51 56 60 63 64 68 75 80 80 84 92 94 92 91 92
70 82 82 62 66 76 63 64 72 55 39 41 37 48 76 79 63 56 47 40 54 75 77 67 58 55 56 59 62 65 65 61 44 39 66 90 86 81 82 78 77 77 72 70 71 71 73 75 75 74 71 71 72 70 67 67 65 60 52 41 37 39 40 40 39 34 32 36 40 42 47 51 54 58 62 63 65 70 75 78 86 93 93 91 91 92
86 85 79 72 81 85 69 67 70 57 48 49 49 65 81 66 47 47 43 31 39 61 73 70 62 57 55 56 61 62 59 54 44 45 72 92 86 81 82 75 71 72 70 70 73 73 75 77 76 74 73 74 73 69 67 67 65 61 55 45 37 37 38 38 37 34 32 36 40 43 47 51 52 54 59 63 64 64 67 76 88 94 93 93 93 95
72 81 79 80 88 87 79 78 72 56 51 59 70 80 72 48 39 44 40 32 33 38 45 51 52 50 51 55 60 59 53 55 61 67 77 85 85 83 84 81 79 78 76 76 77 77 78 78 76 75 76 76 75 71 68 67 66 64 59 49 41 37 35 36 35 33 32 36 40 44 49 51 52 53 57 61 64 64 63 73 88 94 94 95 95 96
52 61 73 85 83 75 78 81 63 44 47 57 60 61 55 43 37 34 30 31 33 31 33 38 41 46 51 53 55 58 60 65 72 77 80 84 87 85 83 84 85 83 83 83 81 79 80 78 77 76 76 77 76 73 69 66 66 66 62 56 48 40 35 35 34 32 32 36 41 45 49 51 52 54 57 59 64 67 67 75 86 93 96 97 95 98
47 45 57 70 62 54 64 68 46 38 57 61 38 29 38 40 34 32 31 31 29 30 35 36 37 44 52 53 51 56 66 72 75 77 79 83 87 88 87 86 84 83 84 83 79 78 79 79 78 76 76 78 77 73 70 69 68 67 66 62 55 43 36 34 33 32 33 37 41 46 48 49 50 56 61 63 64 66 71 80 87 92 97 98 97 100
49 51 51 48 44 44 51 52 38 33 52 61 41 26 28 29 30 36 39 37 34 33 35 36 37 42 50 57 60 63 70 74 74 75 78 81 85 88 88 85 83 81 81 80 78 77 78 78 79 78 78 79 78 75 73 71 70 70 70 67 59 47 38 34 33 32 34 38 42 46 47 47 47 53 61 68 70 68 73 85 94 96 98 99 99 101
54 60 50 39 46 49 37 33 36 29 31 41 40 34 33 33 33 36 37 38 37 34 35 39 43 44 49 58 65 66 67 72 74 77 81 83 86 87 87 86 83 81 82 83 80 78 79 80 81 81 79 77 77 76 73 71 71 73 73 70 64 52 40 33 32 33 35 39 43 47 47 46 45 47 54 60 65 67 74 87 98 100 99 100 100 101
57 59 45 32 41 43 29 29 38 32 27 30 29 29 33 34 33 33 35 36 34 33 37 43 47 52 58 66 71 68 65 72 78 79 80 84 86 87 88 88 86 84 83 83 79 77 81 84 84 83 80 77 76 75 73 72 72 73 73 71 67 58 44 33 31 33 35 39 45 48 48 47 44 46 50 51 52 56 66 82 97 101 101 100 100 100
48 44 44 41 40 37 30 29 32 31 31 32 29 28 30 29 29 32 34 37 39 42 47 53 58 64 65 67 74 77 74 76 80 78 78 81 84 86 87 86 85 83 82 80 78 79 83 86 86 84 80 78 77 75 74 73 72 71 73 72 69 62 49 35 31 34 36 41 47 49 50 49 46 47 52 56 55 55 60 72 89 100 101 100 101 101
40 34 46 50 43 39 36 30 27 29 29 26 25 30 33 33 34 35 36 42 49 54 57 59 61 67 68 69 76 82 78 75 76 78 78 79 81 84 85 83 81 80 80 80 80 80 82 83 84 83 81 79 79 77 76 75 72 72 74 74 71 67 56 40 33 35 38 43 49 51 51 52 51 49 53 58 61 63 65 73 89 101 101 98 100 101
40 35 43 47 44 42 35 24 22 25 24 20 19 22 29 38 43 42 41 44 46 47 50 50 49 56 66 72 78 83 79 72 71 77 80 81 81 83 81 80 81 80 78 79 80 80 80 80 80 81 81 80 79 79 78 77 74 74 76 75 73 72 64 46 35 35 39 45 51 53 54 56 56 54 54 54 55 59 64 72 85 97 101 100 100 101
35 30 35 41 42 36 23 18 23 25 22 22 20 20 27 37 43 44 41 40 41 41 45 50 52 53 57 61 67 77 81 75 72 77 82 82 80 79 78 77 79 80 79 80 83 84 83 82 81 81 81 80 79 80 81 80 78 77 78 76 75 76 71 53 37 35 40 46 51 54 56 58 58 56 57 55 52 55 61 65 69 77 86 95 100 100
Wind_Speed
4 6 6 3 3 7 7 4 5 4 4 5 4 4 2 1 3 4 4 5 0 2 5 5 5 8 9 9 9 9 7 7 7 6 5 5 3 4 5 4 2 3 4 5 5 7 9 11 12 11 12 14 17 18 20 20 21 23 23 24 24 24 24 26 27 27 26 27 27 27 27 28 27 26 26 26 27 27 25 26 28 27 28 31 29 29
5 8 4 3 6 6 6 4 4 4 5 4 4 4 1 1 3 4 3 4 1 1 4 3 5 10 10 9 8 6 7 8 9 7 6 5 4 4 4 5 4 3 4 3 3 6 7 10 10 10 12 14 16 17 18 19 21 23 23 23 23 23 24 25 25 25 24 23 23 23 23 24 24 24 25 26 27 28 25 25 26 26 27 29 29 30
7 7 5 6 4 3 3 1 5 7 6 5 4 4 1 2 3 4 4 4 3 1 4 4 5 10 11 9 8 7 9 9 8 8 6 5 4 4 5 4 4 4 5 3 1 4 6 8 9 10 11 13 15 16 16 18 21 23 22 23 22 22 23 24 24 24 22 20 20 20 19 20 21 20 21 23 26 28 27 27 28 26 27 28 29 29
6 3 7 4 1 1 3 6 7 6 5 5 5 3 2 4 2 3 4 5 3 0 3 4 5 8 8 7 7 7 7 4 3 5 5 4 5 5 5 4 4 5 5 3 2 3 5 7 8 8 10 12 15 16 16 18 21 23 21 22 21 21 23 24 23 23 22 20 20 20 17 17 18 18 19 22 25 27 27 29 30 28 28 28 28 28
4 4 5 5 4 3 5 8 8 6 5 3 3 3 2 5 3 4 4 5 5 2 2 4 5 5 4 5 7 4 2 2 1 3 3 4 5 5 3 3 5 6 5 4 3 3 5 6 6 7 8 11 15 16 15 16 20 22 20 20 20 19 21 23 23 23 23 22 23 22 20 19 19 20 21 22 24 26 26 28 29 28 27 28 29 29
2 3 2 3 4 5 6 6 5 4 4 4 2 4 4 4 4 6 5 4 4 4 3 3 4 4 5 5 7 4 2 4 2 3 6 6 5 5 3 3 5 5 5 5 5 5 6 6 4 5 8 11 14 14 13 14 18 21 19 19 19 19 20 22 22 23 23 23 23 24 23 23 23 23 23 23 24 25 25 26 28 27 27 27 28 28
2 5 4 3 2 3 6 5 3 3 6 3 2 4 4 3 2 4 3 3 3 3 4 3 4 3 6 6 7 4 3 6 4 4 7 7 6 5 4 5 5 5 5 4 5 6 6 4 4 5 7 9 11 11 11 13 17 20 18 18 18 18 20 20 21 22 22 22 23 22 21 22 22 21 22 23 23 23 24 26 27 27 27 27 27 27
2 7 7 4 3 4 6 4 2 4 6 2 1 6 6 3 3 3 2 3 0 2 4 3 4 2 5 6 6 4 3 6 7 6 7 7 8 6 6 7 6 6 6 4 4 5 5 5 5 5 5 7 9 9 10 13 17 19 17 17 17 17 19 19 19 21 21 21 22 21 20 21 21 20 21 23 22 22 24 26 27 27 28 28 28 27
1 4 6 5 5 5 4 1 1 5 3 3 2 5 4 4 4 3 3 2 0 2 4 5 1 0 5 6 5 3 2 6 8 8 8 9 9 7 7 8 7 7 5 5 5 5 6 7 6 4 4 5 7 9 10 12 16 17 15 16 17 16 18 19 18 19 20 20 21 21 20 21 21 21 21 23 23 23 25 26 27 28 28 28 28 28
1 2 3 1 4 3 3 4 4 6 1 2 3 4 3 2 2 2 4 2 3 4 2 6 1 1 5 6 5 3 2 6 7 7 8 9 9 7 8 8 7 6 4 4 7 8 7 8 7 4 3 3 6 8 9 10 14 17 15 15 16 16 17 19 17 19 19 19 20 20 20 21 21 21 22 23 24 24 25 26 27 28 28 28 28 28
3 3 2 1 2 1 4 4 4 5 2 2 5 5 5 4 3 2 2 3 4 3 5 6 2 2 3 6 4 2 3 5 5 5 7 8 8 8 9 8 7 5 4 5 6 7 8 8 7 4 2 2 5 6 7 10 14 16 15 14 15 15 16 18 18 18 19 19 19 20 20 21 21 21 21 23 24 24 25 26 26 27 28 28 28 28
6 5 1 2 3 1 2 2 0 0 1 4 4 4 3 3 4 4 4 5 4 3 6 5 2 4 1 6 5 5 7 6 5 6 8 9 8 8 8 7 6 5 5 5 5 6 7 8 7 4 2 1 3 5 7 10 14 16 14 14 14 14 16 18 18 18 19 19 19 19 20 21 21 21 21 22 23 23 24 25 25 26 27 28 28 28
3 2 3 4 3 2 4 3 4 5 5 5 4 5 4 3 4 3 4 3 1 4 3 1 1 1 4 8 8 9 10 8 8 9 9 9 9 8 8 7 5 4 6 5 5 5 6 8 8 5 3 1 2 4 7 11 14 16 14 13 13 14 15 17 18 18 18 19 19 19 20 21 22 20 20 21 22 22 23 24 25 25 26 26 26 27
3 5 6 4 3 2 5 4 2 4 5 5 2 3 3 2 3 3 3 2 3 5 3 0 0 2 4 7 8 9 9 9 9 9 8 9 9 9 8 6 4 5 6 5 5 4 6 9 8 6 4 2 1 3 7 10 14 15 13 12 13 14 15 17 18 18 18 19 19 19 20 21 22 21 21 22 22 22 23 24 24 24 25 25 25 26
2 4 4 2 1 2 4 3 3 2 2 3 2 5 3 3 3 1 2 1 3 5 5 3 1 3 4 5 7 7 7 7 6 6 6 7 8 8 8 6 4 5 5 5 5 5 7 10 9 6 4 2 1 3 7 10 14 14 12 11 12 14 14 16 18 18 19 19 19 19 20 21 21 20 21 22 22 22 24 24 24 25 25 25 25 25
1 4 5 3 1 2 2 1 4 5 1 2 2 4 2 3 3 1 2 4 1 3 5 3 2 5 5 7 6 4 6 6 5 6 6 8 9 6 7 7 5 6 6 5 5 5 8 10 9 7 4 3 1 3 6 10 13 14 12 10 12 13 13 15 17 18 19 19 19 19 20 21 21 21 21 22 22 23 23 23 24 25 25 25 25 25
1 4 5 4 2 2 3 3 2 3 0 2 2 1 2 3 5 3 1 2 4 2 4 2 3 5 4 6 7 5 5 7 7 7 6 8 9 6 7 8 5 6 6 6 5 6 8 11 10 7 5 3 1 2 5 9 12 13 11 10 11 12 13 14 16 18 19 19 19 19 20 21 21 21 22 22 23 23 23 23 24 25 25 26 25 25
1 4 6 1 0 2 1 3 1 0 2 2 1 2 1 2 4 4 1 4 5 1 4 3 4 6 4 4 6 7 6 8 7 7 7 8 8 7 8 7 6 7 6 6 6 6 9 12 11 8 5 3 2 2 5 9 12 13 11 9 10 12 13 14 15 17 19 19 19 19 20 21 21 22 22 22 23 23 24 24 25 25 26 26 26 25
2 2 7 1 2 4 3 2 3 3 1 2 1 2 2 2 1 1 1 1 2 2 5 5 5 4 2 4 6 8 7 8 8 7 7 8 8 7 8 7 6 6 5 5 5 5 8 12 11 9 6 4 3 1 5 8 12 13 10 8 9 12 13 13 15 17 19 19 18 18 20 20 21 22 22 22 22 23 24 25 25 26 26 27 26 26
1 1 5 4 1 3 3 2 1 3 2 3 2 1 1 2 3 1 0 2 1 1 3 4 5 4 5 6 5 9 9 7 7 7 7 8 8 7 7 6 5 6 5 6 5 5 9 13 12 9 7 6 4 1 4 8 12 13 9 7 9 11 12 13 15 17 19 19 18 18 20 20 21 22 22 22 23 23 24 25 26 26 26 26 26 26
1 2 4 5 4 2 2 1 4 4 2 1 1 1 2 1 1 0 0 2 3 2 2 2 5 7 7 5 6 10 10 7 7 7 7 8 8 7 7 6 5 6 5 6 5 5 10 13 12 10 7 6 4 1 4 8 12 12 9 7 9 11 12 13 15 17 18 18 17 18 20 21 21 22 22 23 23 23 25 26 26 26 26 26 26 26
0 2 3 4 5 2 4 4 4 5 5 4 3 3 3 1 1 1 2 2 1 3 4 2 4 10 8 4 6 9 7 6 7 7 7 8 8 7 7 6 6 6 6 6 5 6 10 13 13 11 9 7 4 1 5 9 12 12 8 7 9 11 11 12 15 16 17 17 17 18 20 21 22 22 23 23 24 24 25 26 26 26 26 26 26 26
1 3 0 4 5 5 6 4 1 3 3 3 2 2 3 3 4 4 2 3 1 1 2 3 2 9 7 4 6 7 6 6 6 6 6 8 8 7 7 6 6 6 5 5 6 8 12 13 13 12 10 7 3 2 4 9 12 11 8 7 9 10 10 11 14 16 16 16 16 18 20 21 22 22 23 24 24 25 26 26 27 26 26 26 26 26
0 2 1 5 5 4 6 4 1 1 1 1 2 2 4 3 3 5 5 3 1 2 2 3 3 9 7 3 5 5 5 5 6 6 7 7 7 7 6 6 6 5 5 5 6 8 10 11 12 12 10 7 3 2 4 8 10 9 8 8 9 9 9 11 14 15 16 15 16 17 19 21 22 22 23 24 24 25 26 27 27 27 27 26 26 26
1 0 1 3 6 7 7 6 5 4 1 2 3 1 3 4 6 4 2 3 1 4 5 4 5 9 6 1 3 4 6 6 7 7 6 6 7 6 5 5 5 5 5 5 5 6 7 9 11 12 11 7 4 3 3 7 9 8 8 8 9 8 9 11 14 14 15 15 15 17 19 20 21 22 23 24 24 25 26 27 28 28 28 27 26 26
1 2 2 2 2 3 5 5 5 4 2 2 1 2 2 5 7 4 2 3 2 4 5 5 6 10 11 7 5 7 7 8 9 8 6 5 6 6 5 5 5 5 5 6 5 5 6 8 11 12 11 7 4 3 3 6 8 8 8 8 8 8 9 11 13 13 14 14 15 17 19 20 21 22 22 23 24 25 26 27 28 28 28 27 26 26
2 2 3 5 6 5 6 8 5 1 3 5 4 3 4 4 5 5 4 3 5 3 3 8 10 12 17 17 14 13 11 10 11 10 8 6 5 5 5 5 5 5 5 6 5 5 5 7 9 12 11 7 5 3 4 6 7 8 9 9 8 8 9 11 12 13 14 14 15 17 18 19 20 20 21 22 23 25 26 27 27 27 28 27 25 25
3 3 4 6 8 9 9 10 7 1 4 9 8 6 6 5 6 7 6 7 5 3 5 9 8 7 15 18 16 16 14 12 12 11 9 7 6 5 4 4 4 4 5 5 5 5 6 6 8 11 11 8 5 3 4 6 8 9 10 9 8 8 10 10 11 12 13 13 15 17 17 18 19 19 20 21 22 24 25 26 27 27 27 27 27 26
4 3 4 4 7 11 10 12 9 4 6 8 7 8 8 6 9 12 12 9 7 5 11 10 5 8 15 18 19 17 13 12 12 11 9 7 6 5 4 4 5 5 5 5 5 6 6 6 8 11 11 8 5 4 5 7 9 10 10 9 8 9 9 9 10 11 12 13 15 16 16 17 18 19 20 20 21 23 24 25 26 26 27 29 30 30
4 3 4 3 6 11 10 10 8 5 4 7 8 10 10 9 12 13 12 9 9 12 16 16 15 17 17 17 19 18 12 10 10 8 7 7 6 5 5 6 6 6 7 7 7 6 6 7 9 11 11 8 5 4 5 8 10 11 10 9 9 9 9 9 10 10 10 12 14 15 16 17 18 19 19 20 21 22 23 24 26 27 28 30 31 31
1 3 2 3 3 9 8 6 4 5 5 8 12 9 7 7 8 9 8 6 7 11 16 14 13 16 15 13 14 13 9 7 8 8 8 7 6 6 6 6 6 6 7 7 6 6 6 7 9 11 11 9 6 3 4 9 11 11 10 9 9 9 8 8 10 9 9 11 12 14 15 17 18 19 19 20 21 22 24 25 26 28 29 30 31 31
1 2 2 5 3 7 4 5 9 8 4 6 12 11 6 6 6 6 6 6 8 8 9 8 7 11 11 6 6 9 7 6 9 10 8 7 6 6 6 7 7 6 7 7 6 6 6 6 9 11 12 10 7 3 5 9 11 10 10 10 9 8 7 7 9 8 8 10 11 13 15 16 17 18 19 20 21 23 24 25 27 28 28 29 29 27
3 1 2 3 2 6 5 5 9 9 6 4 8 6 7 7 6 5 5 7 10 7 4 6 8 10 8 6 9 12 10 8 8 8 7 7 6 6 6 7 7 6 7 7 7 7 7 9 11 13 12 10 8 4 5 8 10 10 10 10 9 7 6 7 7 7 7 9 11 12 14 15 16 17 19 20 21 23 24 24 26 27 26 26 25 23
3 3 1 1 1 6 8 7 6 4 3 5 6 7 7 7 8 7 9 10 10 8 6 8 10 11 11 10 11 13 13 10 7 7 7 6 6 6 6 7 6 6 6 7 6 7 9 11 13 13 12 10 8 5 6 7 9 10 9 9 8 6 6 6 6 6 8 9 10 12 13 14 15 16 17 19 20 22 22 23 25 25 23 24 24 22
3 2 1 1 1 4 5 7 6 1 5 9 6 4 6 7 8 8 11 14 11 11 12 13 14 15 14 12 10 11 12 10 7 8 9 7 7 7 6 6 6 6 6 6 6 7 10 13 14 13 12 11 8 6 5 7 9 9 9 9 8 6 5 5 5 6 7 8 10 11 12 13 14 15 16 18 19 20 21 22 23 23 22 22 21 20
5 3 2 1 2 2 3 4 2 5 10 12 9 3 3 2 3 2 9 14 13 11 11 12 14 15 13 11 10 9 8 8 6 7 9 9 8 7 7 7 7 7 8 8 9 11 14 15 14 13 13 12 10 7 5 6 8 9 9 8 7 6 5 5 5 5 7 8 9 11 11 13 14 14 15 16 17 19 20 20 21 21 22 21 19 18
6 4 1 1 2 1 0 2 4 6 10 10 4 1 2 2 3 3 3 11 11 8 9 10 12 13 12 11 10 7 5 7 7 6 8 8 7 8 8 8 8 9 10 12 13 14 15 15 13 12 12 12 11 9 6 5 7 8 8 8 7 6 6 5 5 5 6 7 8 10 10 11 13 14 15 15 17 18 19 19 20 20 21 21 21 21
4 3 3 2 1 1 1 3 4 5 6 7 6 5 3 2 5 6 2 8 11 7 8 9 10 12 11 10 8 5 5 6 8 7 6 6 7 7 7 8 10 12 13 13 13 14 15 14 13 12 13 13 13 11 8 6 6 7 7 7 7 7 6 5 5 5 6 6 7 9 9 10 11 13 14 14 15 17 17 18 19 19 19 20 21 22
3 2 3 2 2 0 3 1 2 3 6 8 8 7 5 3 5 6 2 6 9 7 7 8 9 10 10 9 6 4 5 7 9 8 5 6 7 7 7 8 10 12 13 14 15 16 17 16 13 12 14 15 15 13 10 7 6 6 7 7 7 7 7 6 6 6 5 5 6 7 8 9 10 11 12 13 14 15 16 17 17 17 17 17 19 20
3 3 2 2 4 3 3 2 3 5 8 10 9 6 5 4 6 7 5 8 7 6 5 7 8 10 9 8 5 1 2 6 9 7 4 6 6 9 10 10 11 14 15 16 17 17 17 16 15 15 16 17 16 14 11 9 7 6 6 7 7 8 8 8 7 6 5 4 5 6 7 8 9 10 11 12 14 14 15 15 15 15 16 16 17 18
1 0 1 3 3 4 4 3 4 5 8 10 8 4 6 4 4 2 6 8 5 4 5 6 8 10 8 7 5 4 6 9 9 8 4 4 5 8 12 14 15 16 18 19 19 19 18 18 18 18 17 16 16 15 14 12 9 7 6 7 8 9 9 8 7 5 4 4 4 5 5 6 8 9 10 11 13 14 14 15 14 14 15 16 17 18
1 1 1 2 2 3 4 3 3 7 7 5 3 2 4 3 1 5 7 5 3 6 7 7 8 9 8 8 7 8 9 10 9 9 7 6 6 7 10 12 13 13 15 17 19 20 20 20 20 19 18 16 16 16 16 14 11 9 7 8 9 9 9 8 7 5 4 4 4 4 4 5 6 8 9 10 12 13 13 14 13 12 14 15 17 18
4 3 2 3 4 2 1 1 1 7 7 6 7 1 2 5 6 6 5 6 7 8 9 9 8 7 7 8 9 10 11 11 10 9 9 8 8 8 9 12 14 15 17 18 20 23 23 22 22 22 19 17 17 17 17 15 13 10 9 8 8 8 9 8 7 6 5 5 3 3 4 5 6 7 8 9 12 13 13 13 12 12 14 15 17 18
4 5 3 4 3 4 3 4 5 6 7 8 6 4 7 9 7 5 6 9 11 9 8 9 9 8 8 8 10 11 10 10 10 10 9 8 8 8 9 12 15 16 19 21 23 25 25 23 22 22 20 18 18 18 18 17 15 12 10 9 7 8 10 9 7 7 6 5 3 2 3 4 6 8 8 9 11 12 13 12 11 12 14 15 17 17
7 7 5 4 5 4 6 9 9 7 5 7 8 10 12 11 9 6 6 9 10 9 8 8 10 10 8 8 10 10 9 9 10 10 8 7 8 8 9 13 17 19 21 23 24 25 27 26 24 22 21 20 19 19 19 19 17 15 12 9 7 9 10 9 8 8 7 5 4 1 2 2 5 7 8 10 11 12 13 11 10 12 13 14 16 15
7 5 4 3 4 4 7 11 12 13 14 11 10 11 11 11 10 9 8 9 10 10 9 8 9 11 9 8 8 9 10 10 10 10 9 7 7 8 10 13 17 20 21 22 23 26 27 25 23 21 21 20 20 20 20 20 19 17 14 10 8 9 10 9 9 9 8 6 4 2 1 2 3 5 7 9 11 11 12 10 9 12 12 12 15 14
5 4 4 4 3 2 7 10 9 12 15 13 11 10 9 10 11 10 8 9 11 11 10 9 9 10 9 8 8 10 13 11 10 10 9 7 8 8 8 11 15 19 22 24 26 26 26 24 22 21 21 21 21 21 21 20 20 19 15 12 10 10 10 10 10 10 9 7 4 2 1 1 3 4 5 7 8 9 10 8 8 10 11 12 15 14
3 3 4 6 5 5 10 13 11 11 13 12 11 10 9 11 13 11 9 10 10 10 11 10 9 8 8 9 9 11 13 11 10 11 9 7 7 7 7 11 16 19 22 24 25 25 25 24 23 22 22 22 22 21 21 21 21 20 17 15 12 11 11 11 11 11 10 8 5 4 2 1 3 4 5 6 7 8 8 7 8 9 10 11 14 13
2 3 4 3 4 6 11 15 13 11 12 14 13 9 7 9 12 12 11 10 9 10 11 11 10 9 9 10 10 9 12 13 11 10 10 9 7 7 9 13 17 19 22 23 24 26 27 26 25 25 24 24 22 20 21 21 21 20 19 16 14 13 12 12 12 12 11 9 7 5 3 1 1 3 5 6 7 8 7 6 6 7 9 9 10 11
2 5 4 2 2 8 11 11 8 5 8 12 14 12 7 7 8 10 12 12 12 13 12 13 13 12 11 13 12 9 10 13 11 9 9 9 8 9 12 14 16 18 20 21 23 25 27 27 27 26 25 24 22 20 20 20 20 20 19 17 16 14 13 13 13 13 13 11 9 7 5 3 1 2 4 5 7 7 7 5 2 2 6 8 8 8
7 8 6 6 6 10 13 12 7 4 7 11 14 14 10 6 7 11 14 14 14 14 12 11 13 13 12 13 14 11 11 12 12 9 8 10 12 14 15 15 16 17 19 20 21 23 25 26 26 26 25 25 22 20 20 20 20 20 20 19 18 15 14 14 15 15 15 13 11 8 7 5 3 2 3 4 5 6 7 6 4 3 3 5 5 7
Wind_Direction
55 73 50 42 269 279 281 247 186 172 139 134 111 95 140 218 289 272 277 280 222 58 273 242 260 274 273 265 245 240 234 232 236 215 221 251 278 282 290 303 291 281 258 196 135 85 62 46 42 42 33 24 22 21 19 17 15 14 13 12 12 12 10 8 8 10 11 9 5 2 2 359 359 360 359 359 359 1 2 359 2 3 1 2 3 2
53 71 32 282 241 260 289 261 179 111 92 108 102 83 58 245 266 272 266 284 338 76 272 293 310 282 273 268 254 234 225 232 226 209 216 232 255 273 284 292 267 265 271 215 132 96 69 48 45 41 33 28 26 25 21 18 16 14 13 13 13 12 11 11 11 11 12 11 5 1 359 356 356 358 357 355 356 358 359 359 2 2 0 1 1 1
45 52 322 283 241 245 320 1 103 94 83 72 76 85 29 293 288 294 291 311 13 96 274 323 327 286 282 281 264 230 214 226 219 199 191 193 221 267 272 271 251 261 280 275 163 116 83 52 46 39 36 34 29 27 21 18 16 14 13 12 12 13 10 11 12 11 12 10 6 4 360 356 354 355 356 355 355 358 358 358 1 1 0 360 1 1
62 2 317 339 85 148 27 29 59 72 63 62 66 77 290 294 342 297 290 323 339 60 270 302 310 287 294 307 283 240 215 241 239 189 183 182 200 239 245 221 216 241 254 256 253 142 94 56 46 42 42 36 29 26 21 17 15 13 12 10 12 12 9 10 11 11 12 9 6 6 2 358 356 354 356 356 357 358 357 357 358 360 359 358 359 360
98 274 321 31 41 70 62 34 46 62 33 20 94 110 273 287 281 243 272 322 332 355 313 316 327 295 309 325 294 281 232 263 258 181 226 249 232 248 261 216 219 234 228 216 215 166 100 66 57 54 45 33 28 27 20 16 14 13 10 9 11 12 8 9 11 11 11 9 6 5 3 1 360 358 358 357 356 355 354 353 355 357 357 357 357 358
81 322 8 42 15 37 75 55 39 75 53 343 253 188 231 245 241 267 306 358 19 359 309 359 9 300 311 306 272 287 284 249 243 203 240 263 267 276 298 265 243 243 227 202 183 158 109 82 86 65 44 33 31 27 18 11 12 11 8 9 10 11 9 8 10 11 11 10 7 5 4 1 359 357 356 354 351 350 350 349 350 353 355 356 356 356
25 6 33 84 93 45 67 66 15 94 88 5 285 178 168 148 194 275 327 55 54 311 282 64 88 270 312 305 268 281 273 261 285 268 255 267 272 272 270 256 244 239 231 203 170 146 115 105 118 83 49 38 35 27 16 10 11 10 8 9 9 10 9 7 9 11 10 9 8 7 5 1 359 354 350 349 347 346 346 346 349 351 353 354 355 355
352 356 9 37 89 61 50 41 321 111 95 351 301 123 129 139 195 224 91 79 177 273 320 24 106 226 294 285 281 310 298 291 296 282 277 273 266 265 259 253 241 230 220 188 169 151 131 140 139 101 63 44 36 27 16 13 13 11 9 9 9 9 8 7 9 10 10 8 6 7 3 360 359 353 348 347 346 346 346 346 349 350 350 352 353 355
348 346 340 360 29 38 38 333 208 116 88 271 202 117 138 172 183 170 104 73 355 51 346 322 36 316 273 275 314 355 301 295 286 265 266 266 264 264 255 255 246 230 214 177 169 166 156 155 147 115 79 51 34 27 20 16 16 13 11 8 8 9 7 6 9 10 10 7 5 6 2 357 356 353 348 347 347 348 347 347 348 349 349 349 351 353
238 269 267 24 32 9 273 261 163 131 338 270 134 73 46 84 108 102 95 82 31 42 301 273 317 28 277 283 321 358 288 271 269 261 255 256 265 263 252 257 251 230 202 170 168 165 162 157 149 129 99 53 31 30 23 17 17 14 11 8 7 8 6 5 7 9 8 6 4 4 1 356 354 352 349 348 348 349 348 347 347 347 346 346 348 350
304 313 223 135 30 256 262 275 165 161 211 111 86 49 32 19 21 47 58 76 59 5 265 243 196 100 305 286 271 270 253 226 232 269 269 267 274 263 251 254 249 224 180 173 176 168 160 155 153 143 121 52 30 31 24 16 15 14 10 7 7 6 5 3 4 7 6 5 4 2 359 356 354 351 349 347 347 347 347 346 344 344 343 344 346 347
336 352 291 262 285 316 14 346 82 235 192 111 80 68 70 339 353 21 353 36 69 299 263 234 179 113 216 273 264 262 261 224 204 241 260 268 270 262 253 252 247 212 174 177 183 175 163 158 162 162 158 59 31 26 20 14 12 12 9 5 6 5 4 2 1 5 4 3 3 0 357 356 354 352 349 347 345 344 344 343 342 341 341 342 343 344
330 303 302 304 297 24 53 28 344 350 13 40 37 59 68 348 2 10 328 12 58 262 248 187 25 117 221 254 264 270 271 243 217 224 240 253 259 259 255 252 246 195 175 187 183 183 179 172 173 174 180 202 39 21 15 13 10 9 6 2 5 5 4 0 359 2 3 2 1 358 355 354 354 353 350 347 345 343 342 341 340 339 339 339 339 341
326 306 329 348 321 19 77 78 349 336 357 9 39 87 85 79 38 339 297 341 303 271 268 151 58 278 282 272 244 246 257 238 223 229 237 245 252 256 256 258 245 195 187 194 182 185 191 181 179 180 185 197 85 20 13 13 8 6 3 1 3 2 1 359 357 359 0 359 358 357 354 353 354 353 350 348 346 343 342 341 340 338 337 337 336 337
19 314 320 14 330 11 69 108 142 141 338 313 169 126 112 136 119 282 243 259 287 289 294 303 227 227 278 277 232 233 263 255 243 252 255 257 256 255 266 276 246 208 200 196 186 190 193 183 180 184 188 189 135 23 15 11 6 4 1 359 0 359 358 356 355 356 357 357 355 355 354 353 354 352 349 349 347 345 343 341 340 338 337 337 334 334
76 261 271 296 298 77 82 171 130 107 51 284 148 88 58 175 143 132 202 203 245 320 299 282 250 229 243 271 274 301 307 290 282 284 284 273 265 260 269 269 239 213 205 192 189 194 190 184 182 187 190 182 143 30 16 9 7 3 358 355 356 356 354 353 353 353 355 354 353 354 354 353 354 352 350 349 348 347 345 343 340 338 338 337 335 335
16 276 285 329 339 82 131 182 122 100 94 356 59 71 245 167 123 103 288 331 54 31 288 292 287 289 311 301 309 356 325 295 298 298 289 273 271 273 265 258 236 218 207 190 193 195 188 185 187 192 189 176 141 45 16 10 9 4 355 349 350 351 350 350 351 351 352 352 351 354 354 353 353 352 351 350 348 347 345 344 343 340 338 338 336 335
124 282 294 323 162 320 141 140 39 175 156 68 60 215 207 90 85 95 48 350 37 57 280 310 289 295 338 312 315 348 315 289 293 297 297 286 278 270 258 255 235 214 199 188 193 191 188 189 192 194 188 170 140 58 14 11 12 4 353 343 344 347 347 348 349 349 350 350 351 353 353 352 353 352 353 352 350 348 346 345 345 342 339 338 337 335
120 294 299 269 168 317 355 70 345 310 121 89 159 193 97 70 349 28 59 348 12 314 288 302 293 276 228 238 296 318 298 289 294 299 304 292 277 266 262 261 240 212 190 187 193 189 189 193 196 193 181 167 154 66 11 13 12 3 351 338 339 344 344 345 346 347 348 349 351 354 353 352 353 353 355 355 352 350 348 346 345 343 340 338 337 336
98 95 288 292 272 313 356 58 255 283 331 30 54 350 11 135 166 195 133 164 176 277 283 313 324 293 231 218 253 281 279 279 287 296 295 282 274 267 261 257 232 209 200 198 195 189 191 195 197 190 179 172 162 71 10 14 10 3 351 334 334 339 341 342 344 346 347 348 351 354 354 353 353 355 357 357 355 352 350 347 345 343 341 338 337 337
55 113 253 300 332 319 309 238 202 193 186 80 50 306 303 320 139 208 207 148 138 160 201 304 312 282 255 218 221 258 267 254 260 278 283 279 281 271 255 247 225 207 208 205 191 184 191 196 195 185 179 175 161 58 10 11 8 3 350 332 332 337 339 340 343 345 345 347 351 355 355 353 354 358 359 358 357 353 350 348 346 343 340 338 338 338
127 148 230 295 329 294 249 246 209 183 173 161 180 205 191 189 112 49 302 295 106 154 179 167 287 276 266 212 214 245 248 236 246 262 277 287 292 282 260 241 218 202 206 202 183 179 189 195 190 182 182 179 169 9 6 7 4 1 350 332 331 335 337 339 340 343 345 347 352 356 356 355 357 360 359 359 357 354 351 348 345 344 341 339 339 339
158 108 177 275 274 255 263 276 182 187 188 159 171 171 139 133 123 130 224 265 294 232 179 123 256 269 258 202 210 229 220 230 255 269 284 295 295 285 266 243 216 202 203 187 172 182 191 194 189 185 190 191 193 323 359 2 359 358 347 330 329 332 333 336 337 340 343 347 353 357 357 357 359 360 359 359 356 353 351 347 345 345 342 340 339 340
92 86 28 290 289 297 304 313 348 26 91 167 248 152 140 153 139 151 178 188 220 244 165 116 251 268 270 234 218 235 242 261 282 284 281 289 293 284 264 238 211 197 188 168 172 190 192 189 185 188 198 203 215 294 346 358 357 354 344 329 327 328 329 333 336 339 343 348 354 358 358 358 359 359 359 359 356 353 350 347 346 346 344 342 341 341
280 134 73 335 336 341 341 347 344 339 347 221 244 199 153 123 104 119 144 102 265 232 166 151 242 262 276 242 189 248 275 282 283 277 266 270 280 277 260 236 210 187 174 172 183 193 188 185 188 197 207 210 223 278 329 352 353 348 340 331 325 324 326 331 335 340 345 350 355 358 358 358 359 359 359 358 356 353 350 348 348 347 346 344 342 343
224 197 136 96 17 330 315 313 315 306 273 238 213 193 191 139 131 154 133 98 245 236 162 171 240 273 290 295 280 278 283 288 292 292 281 267 265 265 256 233 210 188 181 186 189 191 194 195 199 205 209 209 221 262 313 340 345 341 336 330 323 321 324 330 336 342 347 352 357 357 356 357 359 358 358 358 356 354 352 350 349 348 347 346 344 344
100 218 203 175 185 208 232 248 261 329 299 278 265 241 220 181 146 125 113 165 203 189 204 228 238 272 290 293 297 302 304 307 309 309 307 295 277 269 257 236 217 198 190 191 186 191 202 204 207 209 207 208 221 255 304 326 335 336 332 328 322 320 324 331 338 344 349 353 357 357 355 356 358 357 359 360 358 355 353 351 351 349 348 348 347 346
86 282 245 196 220 234 236 254 270 319 267 261 263 258 230 196 157 152 188 212 169 115 270 246 213 245 279 287 295 299 304 309 307 302 304 300 283 271 258 240 217 195 191 186 183 197 205 207 213 210 205 207 224 257 301 320 326 330 330 324 319 321 326 332 340 346 350 354 356 355 354 355 356 357 360 0 358 357 354 352 352 350 349 352 354 352
121 261 239 186 250 258 249 263 271 255 253 255 249 250 244 201 178 196 219 209 163 194 252 254 238 259 276 285 288 290 293 296 293 292 297 296 283 269 254 239 218 200 202 202 200 210 210 208 211 207 203 208 227 266 305 321 323 325 325 319 318 324 328 333 342 347 352 356 355 353 354 357 357 358 360 359 358 357 354 353 354 354 355 358 358 358
145 247 232 175 287 281 263 265 258 222 253 279 254 236 231 213 201 213 229 215 199 232 253 265 277 277 273 273 276 282 285 282 282 288 291 289 279 262 247 242 231 214 210 209 211 214 212 208 206 202 201 209 229 265 309 325 323 320 319 314 316 325 329 333 341 348 355 357 354 352 356 359 359 359 360 358 357 356 355 356 359 358 358 358 358 358
166 265 230 117 316 292 289 310 291 213 222 271 280 263 228 223 226 227 234 225 221 245 258 266 277 278 271 262 263 272 280 284 288 289 283 276 267 254 248 249 242 226 215 214 215 214 213 208 201 198 200 211 230 257 320 330 322 315 313 311 314 323 328 330 337 348 357 355 353 355 358 0 360 360 359 357 356 357 358 0 1 359 357 356 357 356
153 279 356 57 344 281 290 349 322 295 259 263 283 280 229 206 222 219 214 200 195 224 261 274 269 267 269 270 270 273 275 279 282 282 280 272 254 237 242 252 245 224 212 212 212 210 209 203 197 200 207 215 225 246 323 328 319 311 310 308 311 321 323 324 335 347 355 355 357 360 0 1 0 359 358 357 357 359 0 2 2 359 354 353 352 348
142 146 1 38 312 273 283 325 314 318 345 315 270 240 192 201 231 246 244 219 200 200 248 259 253 264 284 312 307 297 295 290 279 273 271 270 259 240 239 248 241 219 207 207 208 208 204 202 203 207 214 219 223 248 307 318 315 312 310 305 308 315 313 320 334 343 351 359 3 2 1 1 0 359 357 357 358 359 1 2 1 358 353 349 346 340
122 117 200 194 238 273 290 320 335 357 357 282 235 177 179 223 230 233 252 241 212 199 226 249 266 281 290 293 289 288 290 292 290 277 264 258 261 260 255 247 229 208 203 204 208 209 200 200 206 212 219 222 225 250 293 309 310 308 306 304 305 304 304 317 328 336 351 5 7 4 2 1 359 358 356 357 358 358 0 1 360 358 353 349 346 342
131 130 216 190 192 265 307 357 6 335 237 260 267 215 219 228 204 216 261 265 241 224 241 261 271 274 276 276 271 272 279 289 300 289 273 255 241 244 253 248 223 199 200 208 210 208 200 197 202 212 218 222 228 245 282 306 304 300 301 303 300 293 296 310 319 332 353 7 9 4 2 359 357 356 355 357 358 358 0 0 359 358 355 351 346 342
147 161 200 185 204 276 356 27 331 272 277 292 309 298 209 184 162 227 282 277 254 227 230 250 260 264 271 274 270 271 284 298 300 275 263 253 233 219 226 233 216 194 197 203 202 202 202 200 205 215 219 221 229 239 268 300 297 293 297 298 292 285 291 298 307 331 354 6 8 5 1 356 354 354 357 358 358 0 1 359 358 358 356 353 349 345
140 147 194 257 221 198 11 260 265 307 314 311 311 200 169 158 176 175 271 282 269 223 208 239 260 266 270 272 275 287 310 315 308 282 260 249 228 213 219 222 208 198 203 207 208 209 207 205 208 217 220 222 229 234 245 281 289 289 292 291 283 278 284 289 297 325 351 2 5 4 0 357 353 354 359 1 0 2 2 360 359 1 360 357 353 352
125 156 186 213 248 113 91 299 316 346 315 278 253 256 260 200 170 147 141 288 282 246 210 224 249 263 269 273 284 319 350 327 310 296 272 249 228 217 226 225 208 199 201 202 202 202 201 202 208 215 218 222 228 232 234 254 278 287 284 279 273 272 276 281 288 314 341 357 2 2 1 359 356 356 1 4 5 5 4 4 4 4 5 3 357 354
67 50 117 149 280 26 115 205 255 250 259 257 255 261 261 189 136 104 36 289 274 256 218 205 231 255 263 268 281 349 5 321 303 293 254 230 226 213 215 221 208 202 204 202 201 201 200 201 208 212 215 221 228 230 229 236 260 279 276 268 263 264 268 270 279 305 330 349 358 359 359 1 359 0 4 7 9 9 8 9 9 9 12 10 3 358
56 24 72 173 241 222 153 188 238 239 251 262 263 249 219 170 106 70 335 281 253 241 210 187 224 253 256 260 268 289 264 267 283 287 234 202 222 218 209 212 206 201 203 202 203 206 203 200 203 207 213 223 230 230 226 228 242 258 264 261 254 256 262 265 276 300 318 332 351 358 359 1 3 6 8 9 12 14 14 14 13 15 17 14 8 4
82 50 160 176 210 199 179 216 270 264 249 257 266 223 171 147 80 63 266 259 249 258 230 195 229 256 261 261 250 228 232 237 255 280 260 187 217 230 219 218 215 209 207 206 204 203 200 202 206 211 220 228 231 229 224 224 233 244 251 250 247 252 260 264 274 291 296 308 339 359 0 2 7 9 11 13 13 14 16 17 18 21 20 15 8 0
216 178 162 156 186 190 181 199 279 286 254 204 176 192 169 150 224 233 237 253 282 290 277 253 249 257 259 255 242 239 253 253 253 273 274 232 223 232 222 214 209 207 208 207 204 202 201 204 209 216 225 230 229 228 224 223 230 237 241 242 245 253 257 257 267 275 270 286 323 353 1 8 15 13 12 13 14 15 14 15 24 30 24 18 10 359
186 177 228 211 185 154 115 127 288 285 257 159 125 117 208 190 226 247 273 290 285 287 292 283 267 256 253 258 256 250 258 266 263 263 264 248 231 231 225 208 200 202 201 199 201 204 203 205 209 216 224 227 228 228 224 223 229 233 237 243 246 248 247 248 257 257 255 272 303 345 2 9 16 15 16 14 13 16 15 13 25 36 30 21 10 357
190 186 221 236 196 147 158 209 214 233 220 173 163 237 231 217 240 280 308 299 291 292 293 286 274 259 243 252 268 267 260 265 265 257 256 250 234 227 225 212 206 206 202 200 205 206 204 206 211 216 222 226 227 228 226 225 228 230 236 244 242 236 236 241 246 240 243 262 283 336 6 10 11 10 14 17 16 16 15 14 26 36 35 25 7 354
217 197 194 225 219 191 203 227 240 254 236 192 207 245 255 259 272 278 272 278 285 285 280 282 282 275 257 248 263 271 263 257 259 256 250 246 235 224 220 217 212 209 207 207 208 207 206 209 212 215 220 224 227 228 229 228 227 229 236 241 234 228 229 232 233 229 232 249 265 312 357 12 17 8 6 12 18 17 15 17 28 33 33 24 4 353
234 188 161 219 244 267 262 246 245 262 267 252 238 246 261 273 279 277 268 266 270 271 271 269 270 273 271 257 253 262 260 254 258 260 251 243 240 230 221 221 218 213 209 208 208 207 208 210 212 215 217 222 226 228 229 230 229 231 236 235 226 225 225 224 225 222 224 236 249 272 315 356 21 14 360 1 12 18 16 21 32 30 27 16 360 356
269 164 170 232 251 294 276 254 232 242 258 266 270 271 270 267 265 266 264 260 264 271 272 267 265 270 271 258 246 256 261 255 255 263 259 244 240 235 221 219 219 213 210 210 210 208 205 205 209 214 215 220 226 227 229 232 232 232 234 232 226 223 219 218 218 217 220 226 230 238 262 338 5 6 355 354 6 17 16 22 36 32 23 9 356 357
266 163 187 231 222 220 258 268 265 261 264 270 272 271 271 272 271 268 261 258 265 273 273 268 263 265 269 261 247 249 259 258 250 257 263 253 241 235 222 220 219 215 214 215 212 206 202 203 209 213 215 220 226 228 229 232 232 232 230 229 228 224 217 215 213 212 217 221 215 216 224 320 351 347 348 355 9 20 18 22 32 29 20 9 359 360
157 182 192 212 240 258 272 278 283 288 286 279 273 263 247 251 266 275 278 278 280 280 280 276 265 255 259 263 253 245 257 262 253 250 259 260 249 239 229 225 222 219 217 214 210 206 205 207 212 214 217 222 226 227 229 230 231 231 229 226 227 225 219 215 211 208 213 216 210 205 199 176 344 334 335 347 7 22 25 24 20 12 11 12 8 9
174 228 205 135 273 269 267 266 269 290 294 287 290 293 279 251 262 281 291 295 292 286 286 288 285 277 265 259 253 244 254 264 262 251 253 257 251 244 238 229 224 222 220 214 210 208 209 212 216 218 220 223 225 226 227 228 229 230 228 225 225 226 223 217 210 206 208 211 208 201 190 174 174 306 320 334 354 13 30 50 64 2 3 9 11 16
205 216 187 171 218 249 264 270 269 267 274 281 291 300 306 308 297 291 291 293 290 287 288 289 290 292 286 270 259 246 245 261 267 259 254 259 257 251 246 237 227 223 220 213 207 207 211 215 218 220 222 222 223 224 226 227 227 228 228 224 222 225 226 220 211 205 206 208 207 201 190 177 175 223 290 321 344 0 21 51 98 120 47 20 17 24